Location: Howell Woods
(35.3600°N, 78.2900°W)
Time: 21:17:10
(UTC-05:00)

Envisat - Visible Passes

Search period start: 05 December 2021 00:00
Search period end: 15 December 2021 00:00
Orbit: 764 x 766 km, 98.2° (Epoch: 05 December)

Date Brightness Start Highest point End Pass type
(mag) Time Alt. Az. Time Alt. Az. Time Alt. Az.
05 Dec 3.3 05:00:04 10° NNE 05:05:08 67° E 05:10:10 10° S visible
05 Dec 6.2 17:53:45 10° WSW 17:55:43 12° W 17:57:41 10° WNW visible
06 Dec 4.9 04:23:51 10° NE 04:28:10 28° E 04:32:27 10° SSE visible
06 Dec 3.8 06:02:44 10° N 06:07:04 29° WNW 06:11:23 10° SW visible
07 Dec 6.0 03:49:28 10° ENE 03:51:00 11° E 03:52:31 10° ESE visible
07 Dec 2.9 05:25:22 10° N 05:30:25 68° WNW 05:35:26 10° SSW visible
08 Dec 3.8 04:48:37 10° NNE 04:53:34 51° E 04:58:28 10° S visible
08 Dec 4.4 06:28:59 10° NNW 06:32:07 17° WNW 06:35:14 10° WSW visible
08 Dec 6.0 17:40:57 10° SW 17:44:02 16° W 17:47:10 10° NW visible
09 Dec 5.3 04:12:41 10° NE 04:16:32 21° E 04:20:21 10° SE visible
09 Dec 3.4 05:50:57 10° N 05:55:36 37° WNW 06:00:13 10° SW visible
10 Dec 2.9 05:13:46 10° NNE 05:18:53 87° WNW 05:23:57 10° SSW visible
11 Dec 4.3 04:37:14 10° NNE 04:41:58 39° E 04:46:41 10° SSE visible
11 Dec 4.1 06:16:56 10° NNW 06:20:41 21° WNW 06:24:25 10° WSW visible
11 Dec 5.8 17:28:36 10° SW 17:32:23 21° W 17:36:13 10° NW visible
12 Dec 5.6 04:01:43 10° NE 04:04:53 16° E 04:08:02 10° SE visible
12 Dec 3.1 05:39:14 10° N 05:44:06 48° WNW 05:48:57 10° SW visible
13 Dec 3.1 05:02:14 10° NNE 05:07:19 72° ESE 05:12:23 10° S visible
13 Dec 4.7 06:43:51 10° NW 06:45:40 12° WNW 06:47:29 10° W visible
13 Dec 6.3 17:56:32 10° WSW 17:57:56 11° W 17:59:21 10° WNW visible
14 Dec 4.8 04:25:56 10° NE 04:30:22 30° E 04:34:46 10° SSE visible
14 Dec 3.8 06:05:01 10° NNW 06:09:14 27° WNW 06:13:25 10° SW visible
